Year,Month,Day,Hour,Minute,Value (Times are PST for windspeed in km/hr)
2009,06,20,00,00,6.20
2009,06,20,00,01,5.30
2009,06,20,00,02,10.00
2009,06,20,00,03,9.10
2009,06,20,00,04,9.60
2009,06,20,00,05,10.50
2009,06,20,00,06,9.70
2009,06,20,00,07,9.00
2009,06,20,00,08,8.80
2009,06,20,00,09,12.90
2009,06,20,00,10,6.80
2009,06,20,00,11,6.80
2009,06,20,00,12,8.00
2009,06,20,00,13,8.30
2009,06,20,00,14,7.50
2009,06,20,00,15,8.90
2009,06,20,00,16,11.70
2009,06,20,00,17,8.50
2009,06,20,00,18,7.90
2009,06,20,00,19,9.70
2009,06,20,00,20,10.00
2009,06,20,00,21,11.20
2009,06,20,00,22,12.80
2009,06,20,00,23,8.30
2009,06,20,00,24,7.80
2009,06,20,00,25,8.40
2009,06,20,00,26,11.20
2009,06,20,00,27,10.30
2009,06,20,00,28,7.80
2009,06,20,00,29,8.20
2009,06,20,00,30,11.70
2009,06,20,00,31,8.60
2009,06,20,00,32,6.50
2009,06,20,00,33,7.20
2009,06,20,00,34,8.40
2009,06,20,00,35,7.60
2009,06,20,00,36,7.90
2009,06,20,00,37,12.40
2009,06,20,00,38,8.90
2009,06,20,00,39,12.80
2009,06,20,00,40,5.60
2009,06,20,00,41,7.30
2009,06,20,00,42,12.40
2009,06,20,00,43,7.60
2009,06,20,00,44,10.00
2009,06,20,00,45,11.90
2009,06,20,00,46,7.90
2009,06,20,00,47,12.50
2009,06,20,00,48,8.10
2009,06,20,00,49,8.90
2009,06,20,00,50,8.90
2009,06,20,00,51,12.70
2009,06,20,00,52,8.40
2009,06,20,00,53,7.70
2009,06,20,00,54,6.50
2009,06,20,00,55,5.50
2009,06,20,00,56,5.00
2009,06,20,00,57,8.60
2009,06,20,00,58,8.60
2009,06,20,00,59,10.00
2009,06,20,01,00,3.90
2009,06,20,01,01,6.30
2009,06,20,01,02,7.80
2009,06,20,01,03,6.50
2009,06,20,01,04,7.30
2009,06,20,01,05,2.80
2009,06,20,01,06,4.40
2009,06,20,01,07,4.00
2009,06,20,01,08,7.70
2009,06,20,01,09,9.10
2009,06,20,01,10,4.70
2009,06,20,01,11,4.30
2009,06,20,01,12,3.80
2009,06,20,01,13,3.60
2009,06,20,01,14,3.30
2009,06,20,01,15,2.70
2009,06,20,01,16,6.10
2009,06,20,01,17,2.30
2009,06,20,01,18,4.60
2009,06,20,01,19,1.30
2009,06,20,01,20,1.40
2009,06,20,01,21,1.40
2009,06,20,01,22,2.80
2009,06,20,01,23,2.70
2009,06,20,01,24,2.50
2009,06,20,01,25,1.80
2009,06,20,01,26,2.70
2009,06,20,01,27,2.50
2009,06,20,01,28,5.20
2009,06,20,01,29,1.30
2009,06,20,01,30,5.70
2009,06,20,01,31,6.00
2009,06,20,01,32,2.70
2009,06,20,01,33,3.20
2009,06,20,01,34,4.40
2009,06,20,01,35,4.80
2009,06,20,01,36,5.80
2009,06,20,01,37,2.90
2009,06,20,01,38,4.30
2009,06,20,01,39,4.80
2009,06,20,01,40,4.70
2009,06,20,01,41,4.10
2009,06,20,01,42,4.30
2009,06,20,01,43,7.60
2009,06,20,01,44,6.90
2009,06,20,01,45,8.90
2009,06,20,01,46,6.10
2009,06,20,01,47,7.50
2009,06,20,01,48,9.10
2009,06,20,01,49,4.80
2009,06,20,01,50,5.30
2009,06,20,01,51,6.10
2009,06,20,01,52,5.40
2009,06,20,01,53,6.60
2009,06,20,01,54,2.80
2009,06,20,01,55,5.50
2009,06,20,01,56,3.10
2009,06,20,01,57,1.60
2009,06,20,01,58,4.30
2009,06,20,01,59,2.80
2009,06,20,02,00,3.90
2009,06,20,02,01,6.30
2009,06,20,02,02,3.50
2009,06,20,02,03,3.70
2009,06,20,02,04,3.30
2009,06,20,02,05,6.40
2009,06,20,02,06,2.30
2009,06,20,02,07,3.20
2009,06,20,02,08,4.90
2009,06,20,02,09,2.70
2009,06,20,02,10,3.10
2009,06,20,02,11,2.10
2009,06,20,02,12,3.50
2009,06,20,02,13,1.00
2009,06,20,02,14,0.80
2009,06,20,02,15,3.30
2009,06,20,02,16,3.90
2009,06,20,02,17,1.60
2009,06,20,02,18,4.30
2009,06,20,02,19,1.90
2009,06,20,02,20,2.10
2009,06,20,02,21,1.80
2009,06,20,02,22,1.70
2009,06,20,02,23,1.10
2009,06,20,02,24,3.20
2009,06,20,02,25,1.30
2009,06,20,02,26,2.80
2009,06,20,02,27,7.00
2009,06,20,02,28,9.40
2009,06,20,02,29,2.10
2009,06,20,02,30,2.00
2009,06,20,02,31,2.50
2009,06,20,02,32,4.60
2009,06,20,02,33,5.00
2009,06,20,02,34,5.20
2009,06,20,02,35,5.70
2009,06,20,02,36,2.70
2009,06,20,02,37,2.20
2009,06,20,02,38,3.50
2009,06,20,02,39,5.20
2009,06,20,02,40,2.70
2009,06,20,02,41,2.80
2009,06,20,02,42,2.70
2009,06,20,02,43,2.50
2009,06,20,02,44,4.40
2009,06,20,02,45,2.50
2009,06,20,02,46,3.50
2009,06,20,02,47,1.70
2009,06,20,02,48,1.90
2009,06,20,02,49,3.30
2009,06,20,02,50,3.30
2009,06,20,02,51,2.90
2009,06,20,02,52,3.50
2009,06,20,02,53,5.10
2009,06,20,02,54,6.40
2009,06,20,02,55,5.40
2009,06,20,02,56,3.80
2009,06,20,02,57,5.10
2009,06,20,02,58,3.30
2009,06,20,02,59,4.10
2009,06,20,03,00,3.10
2009,06,20,03,01,0.80
2009,06,20,03,02,0.80
2009,06,20,03,03,1.90
2009,06,20,03,04,2.60
2009,06,20,03,05,2.50
2009,06,20,03,06,1.00
2009,06,20,03,07,0.70
2009,06,20,03,08,2.60
2009,06,20,03,09,2.30
2009,06,20,03,10,2.50
2009,06,20,03,11,0.80
2009,06,20,03,12,0.80
2009,06,20,03,13,2.00
2009,06,20,03,14,1.40
2009,06,20,03,15,3.50
2009,06,20,03,16,3.40
2009,06,20,03,17,3.40
2009,06,20,03,18,1.20
2009,06,20,03,19,2.20
2009,06,20,03,20,3.90
2009,06,20,03,21,2.40
2009,06,20,03,22,5.30
2009,06,20,03,23,1.90
2009,06,20,03,24,2.00
2009,06,20,03,25,3.40
2009,06,20,03,26,4.30
2009,06,20,03,27,1.90
2009,06,20,03,28,2.90
2009,06,20,03,29,1.90
2009,06,20,03,30,3.00
2009,06,20,03,31,3.50
2009,06,20,03,32,3.60
2009,06,20,03,33,5.60
2009,06,20,03,34,3.30
2009,06,20,03,35,3.70
2009,06,20,03,36,3.80
2009,06,20,03,37,2.00
2009,06,20,03,38,2.00
2009,06,20,03,39,4.40
2009,06,20,03,40,2.30
2009,06,20,03,41,3.10
2009,06,20,03,42,1.90
2009,06,20,03,43,3.90
2009,06,20,03,44,4.80
2009,06,20,03,45,4.30
2009,06,20,03,46,5.40
2009,06,20,03,47,5.00
2009,06,20,03,48,2.40
2009,06,20,03,49,2.60
2009,06,20,03,50,2.90
2009,06,20,03,51,2.50
2009,06,20,03,52,3.30
2009,06,20,03,53,3.00
2009,06,20,03,54,2.00
2009,06,20,03,55,2.10
2009,06,20,03,56,2.50
2009,06,20,03,57,2.80
2009,06,20,03,58,3.10
2009,06,20,03,59,4.10
2009,06,20,04,00,5.10
2009,06,20,04,01,4.50
2009,06,20,04,02,2.30
2009,06,20,04,03,1.90
2009,06,20,04,04,4.70
2009,06,20,04,05,3.60
2009,06,20,04,06,2.90
2009,06,20,04,07,2.70
2009,06,20,04,08,6.90
2009,06,20,04,09,4.10
2009,06,20,04,10,1.00
2009,06,20,04,11,4.70
2009,06,20,04,12,5.10
2009,06,20,04,13,5.80
2009,06,20,04,14,4.00
2009,06,20,04,15,3.80
2009,06,20,04,16,5.60
2009,06,20,04,17,2.70
2009,06,20,04,18,4.00
2009,06,20,04,19,4.20
2009,06,20,04,20,1.50
2009,06,20,04,21,3.60
2009,06,20,04,22,2.50
2009,06,20,04,23,3.40
2009,06,20,04,24,6.00
2009,06,20,04,25,5.60
2009,06,20,04,26,7.20
2009,06,20,04,27,2.10
2009,06,20,04,28,3.50
2009,06,20,04,29,0.50
2009,06,20,04,30,1.40
2009,06,20,04,31,4.10
2009,06,20,04,32,2.00
2009,06,20,04,33,0.00
2009,06,20,04,34,1.00
2009,06,20,04,35,0.10
2009,06,20,04,36,1.00
2009,06,20,04,37,2.90
2009,06,20,04,38,0.30
2009,06,20,04,39,0.20
2009,06,20,04,40,8.60
2009,06,20,04,41,1.00
2009,06,20,04,42,1.80
2009,06,20,04,43,4.70
2009,06,20,04,44,6.30
2009,06,20,04,45,3.50
2009,06,20,04,46,0.60
2009,06,20,04,47,4.50
2009,06,20,04,48,2.60
2009,06,20,04,49,1.40
2009,06,20,04,50,2.80
2009,06,20,04,51,1.80
2009,06,20,04,52,3.00
2009,06,20,04,53,1.80
2009,06,20,04,54,3.60
2009,06,20,04,55,2.20
2009,06,20,04,56,1.30
2009,06,20,04,57,1.60
2009,06,20,04,58,2.50
2009,06,20,04,59,2.90
2009,06,20,05,00,1.40
2009,06,20,05,01,2.40
2009,06,20,05,02,0.60
2009,06,20,05,03,4.00
2009,06,20,05,04,4.60
2009,06,20,05,05,0.20
2009,06,20,05,06,1.70
2009,06,20,05,07,0.30
2009,06,20,05,08,0.50
2009,06,20,05,09,1.70
2009,06,20,05,10,0.30
2009,06,20,05,11,3.60
2009,06,20,05,12,0.70
2009,06,20,05,13,1.30
2009,06,20,05,14,0.00
2009,06,20,05,15,0.00
2009,06,20,05,16,0.00
2009,06,20,05,17,0.00
2009,06,20,05,18,0.00
2009,06,20,05,19,1.70
2009,06,20,05,20,1.00
2009,06,20,05,21,0.00
2009,06,20,05,22,0.00
2009,06,20,05,23,0.00
2009,06,20,05,24,1.00
2009,06,20,05,25,2.80
2009,06,20,05,26,3.50
2009,06,20,05,27,2.40
2009,06,20,05,28,3.80
2009,06,20,05,29,1.50
2009,06,20,05,30,0.50
2009,06,20,05,31,0.10
2009,06,20,05,32,3.10
2009,06,20,05,33,3.60
2009,06,20,05,34,3.00
2009,06,20,05,35,0.30
2009,06,20,05,36,0.30
2009,06,20,05,37,2.80
2009,06,20,05,38,3.70
2009,06,20,05,39,1.00
2009,06,20,05,40,3.40
2009,06,20,05,41,2.50
2009,06,20,05,42,0.90
2009,06,20,05,43,3.90
2009,06,20,05,44,1.80
2009,06,20,05,45,0.00
2009,06,20,05,46,1.10
2009,06,20,05,47,1.50
2009,06,20,05,48,0.10
2009,06,20,05,49,0.00
2009,06,20,05,50,1.10
2009,06,20,05,51,1.40
2009,06,20,05,52,0.10
2009,06,20,05,53,3.90
2009,06,20,05,54,4.80
2009,06,20,05,55,3.20
2009,06,20,05,56,0.60
2009,06,20,05,57,0.00
2009,06,20,05,58,0.20
2009,06,20,05,59,1.30
2009,06,20,06,00,1.00
2009,06,20,06,01,2.50
2009,06,20,06,02,3.60
2009,06,20,06,03,0.80
2009,06,20,06,04,0.00
2009,06,20,06,05,0.90
2009,06,20,06,06,0.20
2009,06,20,06,07,2.90
2009,06,20,06,08,1.90
2009,06,20,06,09,0.00
2009,06,20,06,10,0.00
2009,06,20,06,11,3.40
2009,06,20,06,12,1.70
2009,06,20,06,13,0.20
2009,06,20,06,14,0.30
2009,06,20,06,15,0.00
2009,06,20,06,16,0.00
2009,06,20,06,17,0.00
2009,06,20,06,18,0.00
2009,06,20,06,19,0.00
2009,06,20,06,20,0.00
2009,06,20,06,21,0.00
2009,06,20,06,22,0.00
2009,06,20,06,23,0.10
2009,06,20,06,24,2.00
2009,06,20,06,25,3.20
2009,06,20,06,26,0.40
2009,06,20,06,27,1.50
2009,06,20,06,28,0.00
2009,06,20,06,29,0.00
2009,06,20,06,30,0.20
2009,06,20,06,31,0.60
2009,06,20,06,32,0.00
2009,06,20,06,33,0.00
2009,06,20,06,34,0.00
2009,06,20,06,35,0.00
2009,06,20,06,36,0.00
2009,06,20,06,37,0.00
2009,06,20,06,38,0.00
2009,06,20,06,39,0.00
2009,06,20,06,40,0.00
2009,06,20,06,41,0.00
2009,06,20,06,42,0.00
2009,06,20,06,43,0.00
2009,06,20,06,44,0.00
2009,06,20,06,45,0.00
2009,06,20,06,46,0.00
2009,06,20,06,47,0.00
2009,06,20,06,48,0.40
2009,06,20,06,49,0.00
2009,06,20,06,50,0.00
2009,06,20,06,51,0.00
2009,06,20,06,52,0.00
2009,06,20,06,53,0.00
2009,06,20,06,54,0.00
2009,06,20,06,55,0.00
2009,06,20,06,56,0.00
2009,06,20,06,57,0.00
2009,06,20,06,58,1.00
2009,06,20,06,59,2.50
2009,06,20,07,00,0.10
2009,06,20,07,01,0.00
2009,06,20,07,02,0.00
2009,06,20,07,03,0.00
2009,06,20,07,04,0.00
2009,06,20,07,05,0.00
2009,06,20,07,06,0.00
2009,06,20,07,07,0.10
2009,06,20,07,08,3.70
2009,06,20,07,09,1.00
2009,06,20,07,10,2.70
2009,06,20,07,11,1.70
2009,06,20,07,12,1.50
2009,06,20,07,13,0.60
2009,06,20,07,14,2.80
2009,06,20,07,15,2.20
2009,06,20,07,16,0.50
2009,06,20,07,17,1.10
2009,06,20,07,18,1.80
2009,06,20,07,19,0.00
2009,06,20,07,20,0.00
2009,06,20,07,21,0.20
2009,06,20,07,22,2.70
2009,06,20,07,23,0.00
2009,06,20,07,24,0.60
2009,06,20,07,25,2.30
2009,06,20,07,26,1.00
2009,06,20,07,27,0.00
2009,06,20,07,28,0.00
2009,06,20,07,29,0.00
2009,06,20,07,30,0.10
2009,06,20,07,31,0.00
2009,06,20,07,32,0.00
2009,06,20,07,33,0.00
2009,06,20,07,34,0.00
2009,06,20,07,35,0.00
2009,06,20,07,36,0.10
2009,06,20,07,37,0.10
2009,06,20,07,38,0.30
2009,06,20,07,39,0.50
2009,06,20,07,40,0.10
2009,06,20,07,41,0.00
2009,06,20,07,42,0.00
2009,06,20,07,43,1.70
2009,06,20,07,44,3.00
2009,06,20,07,45,0.00
2009,06,20,07,46,0.10
2009,06,20,07,47,0.00
2009,06,20,07,48,0.00
2009,06,20,07,49,1.80
2009,06,20,07,50,1.70
2009,06,20,07,51,2.70
2009,06,20,07,52,3.20
2009,06,20,07,53,2.20
2009,06,20,07,54,3.10
2009,06,20,07,55,0.00
2009,06,20,07,56,0.00
2009,06,20,07,57,0.00
2009,06,20,07,58,0.00
2009,06,20,07,59,0.00
2009,06,20,08,00,0.60
2009,06,20,08,01,3.60
2009,06,20,08,02,2.40
2009,06,20,08,03,4.10
2009,06,20,08,04,5.00
2009,06,20,08,05,3.20
2009,06,20,08,06,1.10
2009,06,20,08,07,1.90
2009,06,20,08,08,0.20
2009,06,20,08,09,0.70
2009,06,20,08,10,4.00
2009,06,20,08,11,3.90
2009,06,20,08,12,3.90
2009,06,20,08,13,0.80
2009,06,20,08,14,0.00
2009,06,20,08,15,1.60
2009,06,20,08,16,1.50
2009,06,20,08,17,2.30
2009,06,20,08,18,0.20
2009,06,20,08,19,0.00
2009,06,20,08,20,1.90
2009,06,20,08,21,3.80
2009,06,20,08,22,0.60
2009,06,20,08,23,1.80
2009,06,20,08,24,2.50
2009,06,20,08,25,3.10
2009,06,20,08,26,3.20
2009,06,20,08,27,1.40
2009,06,20,08,28,1.70
2009,06,20,08,29,2.70
2009,06,20,08,30,1.90
2009,06,20,08,31,1.80
2009,06,20,08,32,0.10
2009,06,20,08,33,2.70
2009,06,20,08,34,1.50
2009,06,20,08,35,3.80
2009,06,20,08,36,3.80
2009,06,20,08,37,4.60
2009,06,20,08,38,3.90
2009,06,20,08,39,3.30
2009,06,20,08,40,0.50
2009,06,20,08,41,1.40
2009,06,20,08,42,1.50
2009,06,20,08,43,0.00
2009,06,20,08,44,3.80
2009,06,20,08,45,0.60
2009,06,20,08,46,2.20
2009,06,20,08,47,3.30
2009,06,20,08,48,4.30
2009,06,20,08,49,4.30
2009,06,20,08,50,2.90
2009,06,20,08,51,6.40
2009,06,20,08,52,2.40
2009,06,20,08,53,0.10
2009,06,20,08,54,0.70
2009,06,20,08,55,0.00
2009,06,20,08,56,2.60
2009,06,20,08,57,3.20
2009,06,20,08,58,6.50
2009,06,20,08,59,2.30
2009,06,20,09,00,0.60
2009,06,20,09,01,0.30
2009,06,20,09,02,2.60
2009,06,20,09,03,0.00
2009,06,20,09,04,0.50
2009,06,20,09,05,3.00
2009,06,20,09,06,4.70
2009,06,20,09,07,4.20
2009,06,20,09,08,3.90
2009,06,20,09,09,1.00
2009,06,20,09,10,0.00
2009,06,20,09,11,0.20
2009,06,20,09,12,0.10
2009,06,20,09,13,1.60
2009,06,20,09,14,1.50
2009,06,20,09,15,2.30
2009,06,20,09,16,0.60
2009,06,20,09,17,4.80
2009,06,20,09,18,6.10
2009,06,20,09,19,5.80
2009,06,20,09,20,3.80
2009,06,20,09,21,1.40
2009,06,20,09,22,0.20
2009,06,20,09,23,0.00
2009,06,20,09,24,1.70
2009,06,20,09,25,0.30
2009,06,20,09,26,0.40
2009,06,20,09,27,0.60
2009,06,20,09,28,1.00
2009,06,20,09,29,1.80
2009,06,20,09,30,0.10
2009,06,20,09,31,4.90
2009,06,20,09,32,4.60
2009,06,20,09,33,3.30
2009,06,20,09,34,3.40
2009,06,20,09,35,2.30
2009,06,20,09,36,4.40
2009,06,20,09,37,4.10
2009,06,20,09,38,5.80
2009,06,20,09,39,7.90
2009,06,20,09,40,2.60
2009,06,20,09,41,5.60
2009,06,20,09,42,4.00
2009,06,20,09,43,3.50
2009,06,20,09,44,3.80
2009,06,20,09,45,0.50
2009,06,20,09,46,3.10
2009,06,20,09,47,2.80
2009,06,20,09,48,3.20
2009,06,20,09,49,0.00
2009,06,20,09,50,0.50
2009,06,20,09,51,0.10
2009,06,20,09,52,2.00
2009,06,20,09,53,0.20
2009,06,20,09,54,4.30
2009,06,20,09,55,4.70
2009,06,20,09,56,2.90
2009,06,20,09,57,6.00
2009,06,20,09,58,3.30
2009,06,20,09,59,1.30
2009,06,20,10,00,3.10
2009,06,20,10,01,5.90
2009,06,20,10,02,2.60
2009,06,20,10,03,0.40
2009,06,20,10,04,0.30
2009,06,20,10,05,3.90
2009,06,20,10,06,6.50
2009,06,20,10,07,2.30
2009,06,20,10,08,2.10
2009,06,20,10,09,7.50
2009,06,20,10,10,8.00
2009,06,20,10,11,6.20
2009,06,20,10,12,2.90
2009,06,20,10,13,3.00
2009,06,20,10,14,4.30
2009,06,20,10,15,6.50
2009,06,20,10,16,9.20
2009,06,20,10,17,7.30
2009,06,20,10,18,6.40
2009,06,20,10,19,6.50
2009,06,20,10,20,8.40
2009,06,20,10,21,8.00
2009,06,20,10,22,8.90
2009,06,20,10,23,8.00
2009,06,20,10,24,5.70
2009,06,20,10,25,8.90
2009,06,20,10,26,8.90
2009,06,20,10,27,5.90
2009,06,20,10,28,8.10
2009,06,20,10,29,8.80
2009,06,20,10,30,8.30
2009,06,20,10,31,8.00
2009,06,20,10,32,8.10
2009,06,20,10,33,6.80
2009,06,20,10,34,8.50
2009,06,20,10,35,7.60
2009,06,20,10,36,6.00
2009,06,20,10,37,6.80
2009,06,20,10,38,6.80
2009,06,20,10,39,10.00
2009,06,20,10,40,7.00
2009,06,20,10,41,7.70
2009,06,20,10,42,6.40
2009,06,20,10,43,5.20
2009,06,20,10,44,6.70
2009,06,20,10,45,4.70
2009,06,20,10,46,5.80
2009,06,20,10,47,4.20
2009,06,20,10,48,1.40
2009,06,20,10,49,1.00
2009,06,20,10,50,3.10
2009,06,20,10,51,4.30
2009,06,20,10,52,0.70
2009,06,20,10,53,1.50
2009,06,20,10,54,4.90
2009,06,20,10,55,6.40
2009,06,20,10,56,6.80
2009,06,20,10,57,7.40
2009,06,20,10,58,4.70
2009,06,20,10,59,6.10
2009,06,20,11,00,5.20
2009,06,20,11,01,5.30
2009,06,20,11,02,3.90
2009,06,20,11,03,6.90
2009,06,20,11,04,5.20
2009,06,20,11,05,6.40
2009,06,20,11,06,7.00
2009,06,20,11,07,5.00
2009,06,20,11,08,2.40
2009,06,20,11,09,7.10
2009,06,20,11,10,7.60
2009,06,20,11,11,8.60
2009,06,20,11,12,3.90
2009,06,20,11,13,5.60
2009,06,20,11,14,7.30
2009,06,20,11,15,6.60
2009,06,20,11,16,4.60
2009,06,20,11,17,5.40
2009,06,20,11,18,5.20
2009,06,20,11,19,5.60
2009,06,20,11,20,5.10
2009,06,20,11,21,4.20
2009,06,20,11,22,6.20
2009,06,20,11,23,9.30
2009,06,20,11,24,10.10
2009,06,20,11,25,8.60
2009,06,20,11,26,7.30
2009,06,20,11,27,9.90
2009,06,20,11,28,8.50
2009,06,20,11,29,9.70
2009,06,20,11,30,11.80
2009,06,20,11,31,8.00
2009,06,20,11,32,9.10
2009,06,20,11,33,8.10
2009,06,20,11,34,7.50
2009,06,20,11,35,11.30
2009,06,20,11,36,11.20
2009,06,20,11,37,5.80
2009,06,20,11,38,5.90
2009,06,20,11,39,6.40
2009,06,20,11,40,11.40
2009,06,20,11,41,10.10
2009,06,20,11,42,11.10
2009,06,20,11,43,10.90
2009,06,20,11,44,11.50
2009,06,20,11,45,9.30
2009,06,20,11,46,10.00
2009,06,20,11,47,7.80
2009,06,20,11,48,5.60
2009,06,20,11,49,6.60
2009,06,20,11,50,6.90
2009,06,20,11,51,8.60
2009,06,20,11,52,7.60
2009,06,20,11,53,9.40
2009,06,20,11,54,11.90
2009,06,20,11,55,9.40
2009,06,20,11,56,9.60
2009,06,20,11,57,6.10
2009,06,20,11,58,7.60
2009,06,20,11,59,8.40
2009,06,20,12,00,7.50
2009,06,20,12,01,9.90
2009,06,20,12,02,6.40
2009,06,20,12,03,6.00
2009,06,20,12,04,9.60
2009,06,20,12,05,9.00
2009,06,20,12,06,5.80
2009,06,20,12,07,6.50
2009,06,20,12,08,7.30
2009,06,20,12,09,8.90
2009,06,20,12,10,8.90
2009,06,20,12,11,7.80
2009,06,20,12,12,4.10
2009,06,20,12,13,2.50
2009,06,20,12,14,4.70
2009,06,20,12,15,1.10
2009,06,20,12,16,3.30
2009,06,20,12,17,6.50
2009,06,20,12,18,4.70
2009,06,20,12,19,3.10
2009,06,20,12,20,8.50
2009,06,20,12,21,2.50
2009,06,20,12,22,0.20
2009,06,20,12,23,4.30
2009,06,20,12,24,3.10
2009,06,20,12,25,8.60
2009,06,20,12,26,9.30
2009,06,20,12,27,7.00
2009,06,20,12,28,10.00
2009,06,20,12,29,9.40
2009,06,20,12,30,8.50
2009,06,20,12,31,5.90
2009,06,20,12,32,4.50
2009,06,20,12,33,6.40
2009,06,20,12,34,7.90
2009,06,20,12,35,7.20
2009,06,20,12,36,6.90
2009,06,20,12,37,5.70
2009,06,20,12,38,9.80
2009,06,20,12,39,6.40
2009,06,20,12,40,10.10
2009,06,20,12,41,5.40
2009,06,20,12,42,11.30
2009,06,20,12,43,8.00
2009,06,20,12,44,6.10
2009,06,20,12,45,8.90
2009,06,20,12,46,6.40
2009,06,20,12,47,5.30
2009,06,20,12,48,6.20
2009,06,20,12,49,5.30
2009,06,20,12,50,5.60
2009,06,20,12,51,11.70
2009,06,20,12,52,5.40
2009,06,20,12,53,7.90
2009,06,20,12,54,7.70
2009,06,20,12,55,3.90
2009,06,20,12,56,3.20
2009,06,20,12,57,4.80
2009,06,20,12,58,7.50
2009,06,20,12,59,5.10
2009,06,20,13,00,5.60
2009,06,20,13,01,2.90
2009,06,20,13,02,6.50
2009,06,20,13,03,5.10
2009,06,20,13,04,6.70
2009,06,20,13,05,1.80
2009,06,20,13,06,5.80
2009,06,20,13,07,7.40
2009,06,20,13,08,7.70
2009,06,20,13,09,8.20
2009,06,20,13,10,7.60
2009,06,20,13,11,6.30
2009,06,20,13,12,6.00
2009,06,20,13,13,5.20
2009,06,20,13,14,7.50
2009,06,20,13,15,4.30
2009,06,20,13,16,5.60
2009,06,20,13,17,5.60
2009,06,20,13,18,5.20
2009,06,20,13,19,7.30
2009,06,20,13,20,8.20
2009,06,20,13,21,6.80
2009,06,20,13,22,1.80
2009,06,20,13,23,4.80
2009,06,20,13,24,6.20
2009,06,20,13,25,5.10
2009,06,20,13,26,5.10
2009,06,20,13,27,6.00
2009,06,20,13,28,6.80
2009,06,20,13,29,4.20
2009,06,20,13,30,6.30
2009,06,20,13,31,3.90
2009,06,20,13,32,5.40
2009,06,20,13,33,4.80
2009,06,20,13,34,7.20
2009,06,20,13,35,4.40
2009,06,20,13,36,7.30
2009,06,20,13,37,7.90
2009,06,20,13,38,6.70
2009,06,20,13,39,6.50
2009,06,20,13,40,6.50
2009,06,20,13,41,8.50
2009,06,20,13,42,7.80
2009,06,20,13,43,7.70
2009,06,20,13,44,8.10
2009,06,20,13,45,5.80
2009,06,20,13,46,5.70
2009,06,20,13,47,9.60
2009,06,20,13,48,8.00
2009,06,20,13,49,9.60
2009,06,20,13,50,8.10
2009,06,20,13,51,4.00
2009,06,20,13,52,7.00
2009,06,20,13,53,9.50
2009,06,20,13,54,8.30
2009,06,20,13,55,5.60
2009,06,20,13,56,1.80
2009,06,20,13,57,5.00
2009,06,20,13,58,8.70
2009,06,20,13,59,8.10
2009,06,20,14,00,2.90
2009,06,20,14,01,6.30
2009,06,20,14,02,7.90
2009,06,20,14,03,8.80
2009,06,20,14,04,7.50
2009,06,20,14,05,8.00
2009,06,20,14,06,7.40
2009,06,20,14,07,8.00
2009,06,20,14,08,6.80
2009,06,20,14,09,6.20
2009,06,20,14,10,4.10
2009,06,20,14,11,5.40
2009,06,20,14,12,2.10
2009,06,20,14,13,0.80
2009,06,20,14,14,4.70
2009,06,20,14,15,7.00
2009,06,20,14,16,4.80
2009,06,20,14,17,5.50
2009,06,20,14,18,4.70
2009,06,20,14,19,7.70
2009,06,20,14,20,1.70
2009,06,20,14,21,5.80
2009,06,20,14,22,8.30
2009,06,20,14,23,7.70
2009,06,20,14,24,8.60
2009,06,20,14,25,5.60
2009,06,20,14,26,2.60
2009,06,20,14,27,4.30
2009,06,20,14,28,8.70
2009,06,20,14,29,4.90
2009,06,20,14,30,9.00
2009,06,20,14,31,5.70
2009,06,20,14,32,8.10
2009,06,20,14,33,9.70
2009,06,20,14,34,10.10
2009,06,20,14,35,8.70
2009,06,20,14,36,10.30
2009,06,20,14,37,6.70
2009,06,20,14,38,1.10
2009,06,20,14,39,2.20
2009,06,20,14,40,2.80
2009,06,20,14,41,9.80
2009,06,20,14,42,11.30
2009,06,20,14,43,8.00
2009,06,20,14,44,9.90
2009,06,20,14,45,6.20
2009,06,20,14,46,9.30
2009,06,20,14,47,9.20
2009,06,20,14,48,11.90
2009,06,20,14,49,12.40
2009,06,20,14,50,10.50
2009,06,20,14,51,10.50
2009,06,20,14,52,12.70
2009,06,20,14,53,7.30
2009,06,20,14,54,10.40
2009,06,20,14,55,10.70
2009,06,20,14,56,8.00
2009,06,20,14,57,6.80
2009,06,20,14,58,9.30
2009,06,20,14,59,7.50
2009,06,20,15,00,10.90
2009,06,20,15,01,5.20
2009,06,20,15,02,7.80
2009,06,20,15,03,7.90
2009,06,20,15,04,8.10
2009,06,20,15,05,8.50
2009,06,20,15,06,10.50
2009,06,20,15,07,7.90
2009,06,20,15,08,8.10
2009,06,20,15,09,8.60
2009,06,20,15,10,6.40
2009,06,20,15,11,7.80
2009,06,20,15,12,7.30
2009,06,20,15,13,7.50
2009,06,20,15,14,6.90
2009,06,20,15,15,7.00
2009,06,20,15,16,7.20
2009,06,20,15,17,6.40
2009,06,20,15,18,9.60
2009,06,20,15,19,7.60
2009,06,20,15,20,7.90
2009,06,20,15,21,7.20
2009,06,20,15,22,6.10
2009,06,20,15,23,6.40
2009,06,20,15,24,3.20
2009,06,20,15,25,7.40
2009,06,20,15,26,7.20
2009,06,20,15,27,6.20
2009,06,20,15,28,7.20
2009,06,20,15,29,6.50
2009,06,20,15,30,3.70
2009,06,20,15,31,11.00
2009,06,20,15,32,6.80
2009,06,20,15,33,3.30
2009,06,20,15,34,7.30
2009,06,20,15,35,6.00
2009,06,20,15,36,7.60
2009,06,20,15,37,5.80
2009,06,20,15,38,7.60
2009,06,20,15,39,7.80
2009,06,20,15,40,10.50
2009,06,20,15,41,6.20
2009,06,20,15,42,10.90
2009,06,20,15,43,8.50
2009,06,20,15,44,9.80
2009,06,20,15,45,8.20
2009,06,20,15,46,7.60
2009,06,20,15,47,8.10
2009,06,20,15,48,8.90
2009,06,20,15,49,9.70
2009,06,20,15,50,5.70
2009,06,20,15,51,9.10
2009,06,20,15,52,7.90
2009,06,20,15,53,5.90
2009,06,20,15,54,9.70
2009,06,20,15,55,5.80
2009,06,20,15,56,8.10
2009,06,20,15,57,9.00
2009,06,20,15,58,8.10
2009,06,20,15,59,8.10
2009,06,20,16,00,6.00
2009,06,20,16,01,6.00
2009,06,20,16,02,6.20
2009,06,20,16,03,8.10
2009,06,20,16,04,7.10
2009,06,20,16,05,9.00
2009,06,20,16,06,5.10
2009,06,20,16,07,5.00
2009,06,20,16,08,6.30
2009,06,20,16,09,6.50
2009,06,20,16,10,5.30
2009,06,20,16,11,5.70
2009,06,20,16,12,5.10
2009,06,20,16,13,5.90
2009,06,20,16,14,5.60
2009,06,20,16,15,6.10
2009,06,20,16,16,11.40
2009,06,20,16,17,8.40
2009,06,20,16,18,8.80
2009,06,20,16,19,9.20
2009,06,20,16,20,7.40
2009,06,20,16,21,8.10
2009,06,20,16,22,8.50
2009,06,20,16,23,7.50
2009,06,20,16,24,8.30
2009,06,20,16,25,8.40
2009,06,20,16,26,7.30
2009,06,20,16,27,4.60
2009,06,20,16,28,4.20
2009,06,20,16,29,8.50
2009,06,20,16,30,7.00
2009,06,20,16,31,5.10
2009,06,20,16,32,3.50
2009,06,20,16,33,7.40
2009,06,20,16,34,5.80
2009,06,20,16,35,2.60
2009,06,20,16,36,6.20
2009,06,20,16,37,6.20
2009,06,20,16,38,6.20
2009,06,20,16,39,1.90
2009,06,20,16,40,5.10
2009,06,20,16,41,6.60
2009,06,20,16,42,6.80
2009,06,20,16,43,7.40
2009,06,20,16,44,9.40
2009,06,20,16,45,12.20
2009,06,20,16,46,11.60
2009,06,20,16,47,10.70
2009,06,20,16,48,10.50
2009,06,20,16,49,6.50
2009,06,20,16,50,9.10
2009,06,20,16,51,6.40
2009,06,20,16,52,4.90
2009,06,20,16,53,6.00
2009,06,20,16,54,8.80
2009,06,20,16,55,8.10
2009,06,20,16,56,8.50
2009,06,20,16,57,6.40
2009,06,20,16,58,6.20
2009,06,20,16,59,4.10
2009,06,20,17,00,5.10
2009,06,20,17,01,8.60
2009,06,20,17,02,7.20
2009,06,20,17,03,7.90
2009,06,20,17,04,8.10
2009,06,20,17,05,7.80
2009,06,20,17,06,9.50
2009,06,20,17,07,8.90
2009,06,20,17,08,7.60
2009,06,20,17,09,6.00
2009,06,20,17,10,8.80
2009,06,20,17,11,7.70
2009,06,20,17,12,5.90
2009,06,20,17,13,6.70
2009,06,20,17,14,5.50
2009,06,20,17,15,6.80
2009,06,20,17,16,9.70
2009,06,20,17,17,9.30
2009,06,20,17,18,9.70
2009,06,20,17,19,8.90
2009,06,20,17,20,7.30
2009,06,20,17,21,5.20
2009,06,20,17,22,5.90
2009,06,20,17,23,6.70
2009,06,20,17,24,6.80
2009,06,20,17,25,6.50
2009,06,20,17,26,4.70
2009,06,20,17,27,6.70
2009,06,20,17,28,5.50
2009,06,20,17,29,8.10
2009,06,20,17,30,8.90
2009,06,20,17,31,5.90
2009,06,20,17,32,3.20
2009,06,20,17,33,7.40
2009,06,20,17,34,5.70
2009,06,20,17,35,4.40
2009,06,20,17,36,4.60
2009,06,20,17,37,5.90
2009,06,20,17,38,5.40
2009,06,20,17,39,7.30
2009,06,20,17,40,7.00
2009,06,20,17,41,6.40
2009,06,20,17,42,8.10
2009,06,20,17,43,6.00
2009,06,20,17,44,4.80
2009,06,20,17,45,5.50
2009,06,20,17,46,5.90
2009,06,20,17,47,3.80
2009,06,20,17,48,4.80
2009,06,20,17,49,5.70
2009,06,20,17,50,5.10
2009,06,20,17,51,4.80
2009,06,20,17,52,3.90
2009,06,20,17,53,3.60
2009,06,20,17,54,4.20
2009,06,20,17,55,6.40
2009,06,20,17,56,3.10
2009,06,20,17,57,5.50
2009,06,20,17,58,5.60
2009,06,20,17,59,6.00
2009,06,20,18,00,5.30
2009,06,20,18,01,5.60
2009,06,20,18,02,2.60
2009,06,20,18,03,4.80
2009,06,20,18,04,4.30